Location: Byszew
(52.1813°N, 19.2693°E)
Time: 14:36:50
(UTC+00:00)

ATLAS CENTAUR R/B - Pass Details

Date: 03 March 2021
Orbit: 475 x 670 km, 64.7° (Epoch: 30 March)

Event Time Altitude Azimuth Distance (km) Brightness Sun altitude
Rises 18:20:39 0° 216° (SW) 2,518 5.0 -18.2°
Reaches altitude 10° 18:22:45 10° 214° (SW) 1,641 4.0 -18.5°
Maximum altitude 18:26:23 73° 130° (SE) 505 0.9 -19.1°
Enters shadow 18:27:02 55° 67° (ENE) 581 1.1 -19.2°
